User: anonymous   Login
Location: Baia de Cri?
(46.1667°N, 22.7167°E)
Time: 08:21:46
(UTC+00:00)
Language:

Cosmos 1743 Rocket - Orbit

View from above orbital plane
View from above orbital plane
View from above satellite
View from above satellite

Ground track
Ground track

The orbit is defined by the following mean orbital elements,

1 16720U          26074.93788433 +.00000000 +00000-0 +40580-4 0 00004
2 16720  82.5542 141.1864 0019117   0.4619 172.2809 14.85674165    04
Epoch (UTC): 15 March 2026 22:30:33
Eccentricity: 0.0019117
inclination: 82.5542°
perigee height: 598 km
apogee height: 625 km
right ascension of ascending node: 141.1864°
argument of perigee: 0.4619°
revolutions per day: 14.85674165
mean anomaly at epoch: 172.2809°

The dashed part of the orbit path shows where the satellite is in the earth's shadow,  

DLR